Flag for U.S.A. Weather past 2 weeks in Ontario, Oregon, U.S.A.

Now
72 °F

Sunny.


Feels Like: 76 °F
Forecast: 34 / 73 °F
Wind: 5 mph from North

Location: Ontario Municipal Airport

Current Time: Mar 30, 2015 at 5:29:58 PM

Latest Report: Mar 30, 2015 at 4:53 PM


Visibility: 10 mi

Pressure: 30.00 "Hg

Humidity: 28%

Dew point: 37 °F

Location of OntarioLocation

Historic Weather in Ontario — Graph

°F

Ontario temperature yesterday

Maximum temperature yesterday: 68 °F (at 4:53 PM)
Minimum temperature yesterday: 32 °F (at 6:53 AM)
Average temperature yesterday: 49 °F

Past Weeks' High & Low Weather Summary

 TemperatureHumidityPressure
High73 °F (Mar 27, 5:53 PM)92% (Mar 26, 7:53 AM)30.49 "Hg (Mar 26, 7:53 AM)
Low30 °F (Mar 19, 7:53 AM)21% (Mar 28, 6:53 PM)29.87 "Hg (Mar 15, 6:53 PM)
Average50 °F61%30.17 "Hg
* Reported Mar 15 3:53 PM — Mar 30 3:53 PM, Ontario, Weather by CustomWeather, © 2015

Note: Actual official high and low records may vary slightly from our data, if they occured in-between our weather recording intervals... More about our weather records

Advertising

Ontario weather history for previous 24 hours

 ConditionsComfort  
Time TempWeatherWind HumidityBarometerVisibility
3:53 PM
Mon, Mar 30
71 °FSunny.No wind27%30.04 "Hg10 mi
2:53 PM67 °FSunny.No wind31%30.09 "Hg10 mi
1:53 PM65 °FSunny.6 mph37%30.13 "Hg10 mi
12:53 PM62 °FSunny.6 mph39%30.16 "Hg10 mi
11:53 AM56 °FSunny.No wind49%30.19 "Hg10 mi
10:53 AM52 °FSunny.No wind53%30.22 "Hg10 mi
9:53 AM45 °FSunny.No wind68%30.22 "Hg10 mi
8:53 AM39 °FClear.No wind76%30.22 "Hg10 mi
7:53 AM34 °FClear.No wind82%30.21 "Hg10 mi
6:53 AM33 °FClear.3 mph82%30.19 "Hg10 mi
5:53 AM34 °FClear.6 mph82%30.19 "Hg10 mi
4:53 AM37 °FClear.5 mph76%30.18 "Hg10 mi
3:53 AM38 °FClear.3 mph76%30.18 "Hg10 mi
2:53 AM39 °FClear.7 mph73%30.19 "Hg10 mi
1:53 AM40 °FClear.3 mph73%30.19 "Hg10 mi
12:53 AM43 °FClear.6 mph68%30.19 "Hg10 mi
11:53 PM
Sun, Mar 29
44 °FClear.5 mph65%30.19 "Hg10 mi
10:53 PM47 °FClear.5 mph59%30.19 "Hg10 mi
9:53 PM50 °FSunny.5 mph52%30.19 "Hg10 mi
8:53 PM57 °FSunny.3 mph36%30.19 "Hg10 mi
7:53 PM63 °FSunny.No wind30%30.18 "Hg10 mi
6:53 PM66 °FSunny.5 mph25%30.19 "Hg10 mi
5:53 PM68 °FSunny.5 mph21%30.20 "Hg10 mi
Weather by CustomWeather, © 2015

See weather overviewHow to use our weather pages